TA2R-16 Weather Reports


time (UTC)temp
F
wind
direction
speed
knots
gust
knots
rain 1hr
in
rain 24hr
in
rain mn
in
humidity
%
barometer
mb
20260507020002 78 0 0.0 0.0 0.00 0.00 0.00 36 1005.8
20260507013001 79 0 0.0 0.0 0.00 0.00 0.00 36 1005.8
20260507010002 79 0 0.0 0.0 0.00 0.00 0.00 36 1005.8
20260507003002 79 0 0.0 0.0 0.00 0.00 0.00 36 1005.9
20260507000002 79 0 0.0 0.0 0.00 0.00 0.00 37 1005.8
20260506233001 79 0 0.0 0.0 0.00 0.00 0.00 37 1006.1
20260506230001 79 0 0.0 0.0 0.00 0.00 0.00 37 1006.1
20260506223003 80 0 0.0 0.0 0.00 0.00 0.00 37 1006.0
20260506220002 80 0 0.0 0.0 0.00 0.00 0.00 36 1006.1
20260506213003 81 0 0.0 0.0 0.00 0.00 0.00 36 1006.2
20260506210003 81 0 0.0 0.0 0.00 0.00 0.00 35 1006.2
20260506203002 82 0 0.0 0.0 0.00 0.00 0.00 35 1006.1
20260506200002 82 0 0.0 0.0 0.00 0.00 0.00 35 1006.0
20260506193002 83 0 0.0 0.0 0.00 0.00 0.00 35 1005.9
20260506190004 84 0 0.0 0.0 0.00 0.00 0.00 35 1005.6
20260506183002 85 0 0.0 0.0 0.00 0.00 0.00 35 1005.3
20260506180003 85 0 0.0 0.0 0.00 0.00 0.00 34 1005.1
20260506173002 87 0 0.0 0.0 0.00 0.00 0.00 32 1004.9
20260506170002 88 0 0.0 0.0 0.00 0.00 0.00 32 1004.8
20260506163002 89 0 0.0 0.0 0.00 0.00 0.00 31 1004.7
20260506153002 92 0 0.0 0.0 0.00 0.00 0.00 25 1004.8
20260506150002 93 0 0.0 0.0 0.00 0.00 0.00 25 1004.7
20260506143001 93 0 0.0 0.0 0.00 0.00 0.00 26 1004.8
20260506140003 93 0 0.0 0.0 0.00 0.00 0.00 25 1004.9
20260506133002 93 0 0.0 0.0 0.00 0.00 0.00 25 1004.8
20260506130003 93 0 0.0 0.0 0.00 0.00 0.00 24 1004.9
20260506123003 94 0 0.0 0.0 0.00 0.00 0.00 24 1005.0
20260506120002 94 0 0.0 0.0 0.00 0.00 0.00 24 1005.1
20260506113002 94 0 0.0 0.0 0.00 0.00 0.00 23 1005.5
20260506110002 94 0 0.0 0.0 0.00 0.00 0.00 22 1005.6
20260506103002 94 0 0.0 0.0 0.00 0.00 0.00 21 1005.6
20260506100002 94 0 0.0 0.0 0.00 0.00 0.00 21 1005.6
20260506093002 95 0 0.0 0.0 0.00 0.00 0.00 21 1005.9
20260506090002 95 0 0.0 0.0 0.00 0.00 0.00 21 1005.9
20260506083001 95 0 0.0 0.0 0.00 0.00 0.00 21 1005.8
20260506073004 103 0 0.0 0.0 0.00 0.00 0.00 17 1005.9
20260506043002 96 0 0.0 0.0 0.00 0.00 0.00 20 1005.4
20260506040003 90 0 0.0 0.0 0.00 0.00 0.00 25 1005.3
20260506033002 80 0 0.0 0.0 0.00 0.00 0.00 35 1005.2
20260506030002 77 0 0.0 0.0 0.00 0.00 0.00 39 1004.9
20260506023002 77 0 0.0 0.0 0.00 0.00 0.00 39 1004.7